PNYC

 

 

Pacific Northwest Yearling Challenge - LAST INVENTORY FROM 350 MILES

Station: Inventory - T Race

Distance: 1 Miles    

Release: 07-Jun-2024 16:00

Weather Release:    Arrival:

Wind at Release:     Wind at Arrival:

Temp at Release: °    Temp at Arrival: °

Lofts: 77

Birds: 90

Clocked: 102

Good Luck to Everyone!
Drops Pos Breeder Pigeon Name Color Sex Team Ent Arrival Speed To Win Elg PdSilverGold
1 Huan Loft - NC 3051-AU23-RDU BB C 1 1 16:11:12.51 157.0214 00:00:00 Yes
2 Redtex - TX 0043-AU23-REDT simba BBWF C 1 1 16:11:19.36 155.4381 00:00:07 Yes
3 Callahan Loft - MO 34838-AU23-AA BBWF H 1 1 16:11:25.61 154.0234 00:00:13 Yes
4 Spoiled Sa Amo - CA 50282-AU23-JEDD 34724/61 BBWF H 1 1 16:11:25.93 153.9516 00:00:13 Yes
5 Radd - OK 2928-AU23-ARPU 1527/41232 Kr 3 BB C 1 1 16:11:29.73 153.1034 00:00:17 Yes
6 PNBarber - FL 0342-AU23-FMT Fallon BC C 1 1 16:11:32.74 152.4381 00:00:20 Yes
7 Mari Loft - MA 28590-AU23-JEDD BC H 1 1 16:11:35.38 151.8572 00:00:23 Missing
8 Not Eligible - OR Disqualified Nl 252 X 21071 2 1 16:11:35.91 151.7438 00:00:23 No
9 De La O-Fernandez - CA 3340-AU23-SWI PEN C 1 1 16:11:40.04 150.8485 00:00:28 Lost
10 PEACH CLASSIC - GA 0753-AU23-PEAC Mark Z. Spot BB H 1 1 16:11:43.27 150.1536 00:00:31 Yes
11 Shirey Loft - PA 0366-IF23-HBG BC C 1 1 16:11:49.46 148.8435 00:00:37 Lost
12 Jim Hewitt - ID 0538-AU23-HEWI BB C 1 1 16:11:57.63 147.1510 00:00:45 Yes
13 Barry & Shawnie - MI 11119-AU23-FOYS BC H 1 1 16:12:24.78 141.7868 00:01:12 Yes
14 Hollywood Lou Loft - FL 1075-AU23-HOLL BB C 1 1 16:12:25.77 141.5986 00:01:13 Yes
15 Joe Zarachowicz - MD 0464-IF23-CCC BB C 1 1 16:12:30.40 140.7231 00:01:18 Yes
16 De La O-Fernandez - CA 3307-AU23-SWI BB H 1 2 16:12:41.27 138.7156 00:01:29 Yes
17 Jim Hewitt - ID 0544-AU23-HEWI BB C 1 2 16:13:10.41 133.5999 00:01:58 Yes
18 Tian Loft - FL 36499-AU23-ARPU BB H 1 1 16:13:11.82 133.3636 00:01:59 Lost
19 De La O-Fernandez - CA 3323-AU23-SWI VEL C 2 3 16:13:21.27 131.7908 00:02:09 Yes
20 Geneseeloft - WA 0310-AU23-GSC BCPI C 1 1 16:13:35.65 129.4673 00:02:23 Yes
21 Postlofts - ID 3713-AU23-GEM BBWF C 2 1 16:14:12.85 123.8201 00:03:00 Yes
22 Ganus Family Loft - IN 1003-AU23-GFL BB H 1 1 16:14:22.10 122.4916 00:03:10 Yes
23 Jessie Morales - OH 6613-AU23-FOYS BC H 1 1 16:14:24.38 122.1671 00:03:12 Yes
24 Golden Loft - WA 0110-AU23-RIXW BB H 1 1 16:14:26.04 121.9343 00:03:14 Yes
25 Lofty One - SC 46193-AU23-ARPU BC C 1 1 16:14:30.04 121.3737 00:03:18 Yes
26 Tian Loft - FL 80056-AU23-ARPU BB C 1 2 16:14:41.80 119.7550 00:03:29 Yes
27 Joe Zarachowicz - MD 0484-IF23-CCC BB H 1 2 16:14:43.18 119.5679 00:03:31 Yes
28 FORMULA23 - FL 2357-AU23-AUDI 2101 Foys X 291 Gswc BC H 1 1 16:14:45.63 119.2372 00:03:33 Yes
29 Bill and Danny - UT 1451-AU23-UVI 103/21573 BB C 1 1 16:14:48.47 118.8547 00:03:36 Yes
30 Family Loft - IN 0456-AU23-FAMI BB H 1 1 16:14:50.94 118.5265 00:03:38 Yes
31 El Vicho - IN 2506-AU23-ELVI BCWF C 1 1 16:15:01.75 117.1056 00:03:49 Yes
32 Stealth Loft - ID 23842-AU23-RMR BKWF C 1 1 16:15:07.96 116.3034 00:03:55 Yes
33 Green Lofts - ID 0183-AU23-LUCK BC C 1 1 16:15:23.00 114.4095 00:04:10 Yes
34 Chick Clayton - ID 0625-AU23-IDA “ Chicks winner” BBWF H 1 1 16:15:38.10 112.5680 00:04:26 Yes
35 Dashing Bandit - TX 0003-AU23-BAND BC H 1 1 16:15:45.04 111.7413 00:04:33 Yes
36 De La O-Fernandez - CA 3310-AU23-SWI BB C 2 4 16:15:45.26 111.7153 00:04:33 Yes
37 Dads Loft - CA 23492-AU23-LAKE BB H 1 1 16:15:49.47 111.2188 00:04:37 Yes
38 PNBarber - FL 0317-AU23-COCO Mason BB C 1 2 16:16:04.17 109.5243 00:04:52 Yes
39 Jessie Morales - OH 6617-AU23-FOYS BB H 1 2 16:16:07.18 109.1834 00:04:55 Yes
40 Charlie Barbiere - NJ 1872-IF23-BSC BB C 1 1 16:16:10.46 108.8133 00:04:58 Lost
41 JZ335Loft - NC 0132-IF23-BLTF GRIZ H 1 1 16:16:21.32 107.6091 00:05:09 Yes
42 Jim Hewitt - ID 0537-AU23-HEWI DKCK H 1 3 16:16:36.51 105.9688 00:05:24 Yes
43 Taylor Loft - NM 23357-AU23-NMRP 830 BB C 1 1 16:16:37.29 105.8859 00:05:25 Yes
44 Honey Farm Loft - TN 3649-IF23-ORPC BB C 1 1 16:16:42.32 105.3545 00:05:30 Yes
45 Barry & Shawnie - MI 72293-AU23-ARPU BC H 1 2 16:16:53.50 104.1924 00:05:41 Yes
46 VMBY Loft - CA 0043-AU23-VMBY BC C 1 1 16:17:17.99 101.7341 00:06:05 Yes
47 Paul Yahiku - OR 2318-AU23-YAHI 19088 X 21085 BBWF H 2 2 16:17:18.01 101.7331 00:06:05 Yes
48 Bill and Danny - UT 1602-IF23-FSC BB H 2 2 16:17:25.15 101.0381 00:06:13 Yes
49 FOB Greek - RI 0292-AU23-RI SPARTAN WARRIOR 2457X 899 BCPI C 1 1 16:17:29.04 100.6635 00:06:17 Yes
50 Valhalla Lofts - TN 0392-IF23-VALH PNWF C 1 1 16:17:42.60 99.3789 00:06:30 Yes
51 Paul Yahiku - OR 2381-AU23-YAHI O&l 3903 X 21092 BC C 1 3 16:17:56.01 98.1404 00:06:43 Yes
52 Victoria Falls World Challenge - ZW 14066-AU23-VITA BB C 1 1 16:18:23.58 95.6886 00:07:11 Yes
53 Bill and Danny - UT 1465-AU23-UVI 95/236 BB C 1 3 16:18:25.42 95.5284 00:07:13 Yes
54 Lindbergh Flyers - MO 3625-AU23-NERP BB H 1 1 16:18:38.18 94.4392 00:07:26 Yes
55 Shirey Loft - PA 0362-IF23-HBG BC C 1 2 16:18:43.26 94.0112 00:07:31 Yes
56 Huan Loft - NC 3083-AU23-RDU BB H 2 2 16:18:53.14 93.1924 00:07:41 Yes
57 Devore Loft - GA 6659-AU23-DEVO Dessert BC H 1 1 16:19:01.45 92.5131 00:07:49 Yes
58 Paul Yahiku - OR 2313-AU23-YAHI 16131 X O&l 3734 BKWF H 2 4 16:19:27.55 90.4450 00:08:15 Yes
59 AFL - GA 0289-IF23-AFL BB C 1 1 16:19:27.89 90.4195 00:08:15 Yes
60 Tnt Racing Loft - UT 0153-AU23-UCA Mealy X SLI's Daughter BB C 1 1 16:19:43.25 89.2457 00:08:31 Yes
61 Chick Clayton - ID 0624-AU23-IDA “ Another Chikoo” BC H 1 2 16:20:21.10 86.4794 00:09:09 Yes
62 Radd - OK 1260-AU23-CBS 2669 DKCK C 1 2 16:20:23.34 86.3203 00:09:11 Lost
63 Hollywood Lou Loft - FL 1054-AU23-HOLL BC H 1 2 16:21:03.39 83.5840 00:09:51 Yes
64 Shirey Loft - PA 0364-IF23-HBG BBWF H 1 3 16:21:09.90 83.1562 00:09:57 Yes
65 A-Lin Loft - ME 0998-AU23-IPBB BB C 1 1 16:21:21.60 82.3964 00:10:09 Yes
66 Bill and Danny - UT 1657-IF23-FSC BC H 2 4 16:21:23.57 82.2699 00:10:11 Yes
67 Geos Collection - CA 0034-IF23-GEO BB C 1 1 16:21:29.04 81.9214 00:10:17 Yes
68 J S R Loft - UT 0027-AU23-JSR DKCK H 1 1 16:22:05.09 79.6927 00:10:53 Yes
69 Joe Zarachowicz - MD 0418-IF23-CCC BB H 1 3 16:22:09.25 79.4433 00:10:57 Yes
70 Team Brooklyn - MN 0165-AU23-FOYS Black Monk BC C 1 1 16:22:36.26 77.8612 00:11:24 Yes
71 J S R Loft - UT 0011-AU23-JSR DKCK H 2 2 16:22:44.08 77.4148 00:11:32 Inj
72 Refried Dreams - AZ 0700-AU23-PSC 318 xxx / Common 88 CHBC C 1 1 16:22:48.47 77.1659 00:11:36 Lost
73 VMBY Loft - CA 0064-AU23-VMBY BC H 1 2 16:23:05.86 76.1982 00:11:53 Yes
74 Team Brooklyn - MN 0200-AU23-FOYS Blue Mieke BBWF H 1 2 16:23:18.38 75.5154 00:12:06 Yes
75 Razor Loft - AR 19816-AU23-JEDD BCWF C 1 1 16:23:37.06 74.5205 00:12:25 Yes
76 Flip A Bean And Two Crackers - CA 3366-AU23-SMR 2236x604 BC C 1 1 16:23:42.57 74.2313 00:12:30 Yes
77 Paul Yahiku - OR 2310-AU23-YAHI 19088 X 21085 BB H 1 5 16:23:52.57 73.7137 00:12:40 Yes
78 Eric Sanchez - CA 5148-AU23-VITA DBB H 1 1 16:24:05.37 73.0604 00:12:53 Lost
79 House Of Paine - CA 3644-AU23-GSF HOP720xHOP47928 BB C 1 1 16:24:06.21 73.0184 00:12:54 Yes
80 Montejano's Loft - TN 3477-IF23-ORPC BB H 1 1 16:25:38.34 68.6450 00:14:26 Yes
81 M.A.B. - MD 33230-IF23-SBS BLCK C 1 1 16:25:50.80 68.0939 00:14:38 Yes
82 Dashing Bandit - TX 23373-AU23-NBC BBT H 1 2 16:25:52.33 68.0263 00:14:40 Yes
83 Spoiled Sa Amo - CA 11291-AU23-VITA MP6/JA DKCK H 1 2 16:26:13.70 67.1030 00:15:01 Yes
84 Huan Loft - NC 3050-AU23-RDU BB C 1 3 16:27:16.15 64.5418 00:16:04 Yes
85 5 De Mayo - WA 152550-MX23-UCDJ BC H 1 1 16:28:23.01 62.0079 00:17:10 Yes
86 Stealth Loft - ID 23847-AU23-RMR BB C 1 2 16:28:24.26 61.9624 00:17:12 Yes
87 Lcc Loft - TN 1073-AU23-NASH BB H 1 1 16:28:56.02 60.8288 00:17:43 Yes
88 Racing Pigeon Mall - WA 0354-AU23-RPM BC H 1 1 16:29:21.61 59.9452 00:18:09 Yes
89 Barry & Shawnie - MI 0186-IF23-JRC BKWF C 4 3 16:29:37.58 59.4063 00:18:25 Yes
90 Garry Family Loft - CA 0097-AU23-LITT BC C 1 1 16:29:53.78 58.8701 00:18:41 Lost
91 El Vicho - IN 2502-AU23-ELVI BC C 1 2 16:30:13.93 58.2158 00:19:01 Yes
92 Easly Family Loft - TX 0700-AU23-PINE BB H 1 1 16:30:44.53 57.2500 00:19:32 Yes
93 Spoiled Sa Amo - CA 50269-AU23-JEDD TZ/VE BB H 1 3 16:31:52.57 55.2134 00:20:40 Yes
94 TACOMA CLUB SYNDICATE - WA 0312-AU23-GSC CHARISSE BCWF H 1 1 16:32:50.43 53.5921 00:21:38 Yes
95 FAmPFA - IL 0733-AU23-VITA BC C 1 1 16:34:37.10 50.8401 00:23:25 Yes
96 Hi-Cal Connection - CA 0774-AU23-HICA BB H 1 1 16:35:25.40 49.6845 00:24:13 Yes
97 Radd - OK 1320-AU23-CBS 153 BC C 1 3 16:37:42.03 46.6837 00:26:30 Yes
98 TACOMA CLUB SYNDICATE - WA 0164-AU23-ARAM BOB LEE 😎 BB C 1 2 16:38:08.90 46.1357 00:26:56 Yes
99 AFL - GA 0156-IF23-AFL BB C 1 2 16:38:19.21 45.9288 00:27:07 Yes
100 Bill and Danny - UT 1662-IF23-FSC BC H 2 5 16:42:09.80 41.7424 00:30:57 Yes

There are 102 bird records

Note: These Race Results are unofficial and subject to change until verified by the Race Committee and declared final.